World > North America > United States > Illinois > Avoca  

Avoca, IL Hourly Weather Updates

Feedback E-mail the Weather

Quick Clicks

Avoca, IL Weather Maps

°F °C°F °C
Avoca Weather Map
UTC Time: 4/20/2024, 14:06
Your Time:

Avoca, IL Regional Weather

Expires:202404201500;;073660
ASUS43 KLOT 201401
RWRIL 

ILLINOIS REGIONAL WEATHER ROUNDUP
NATIONAL WEATHER SERVICE CHICAGO/ROMEOVILLE IL
900 AM CDT SAT APR 20 2024

NOTE: "FAIR" INDICATES FEW OR NO CLOUDS BELOW 12,000 FEET WITH NO
SIGNIFICANT WEATHER AND/OR OBSTRUCTIONS TO VISIBILITY.

* THESE STATIONS ARE NOT UNDER NWS QUALITY CONTROL. THEY ALSO MAY NOT
  REPORT WEATHER SUCH AS PRECIPITATION OR FOG.


ILZ028>032-037-038-041>044-048-051>054-059>061-201500-
CENTRAL ILLINOIS
  
CITY           SKY/WX    TMP DP  RH WIND       PRES   REMARKS
BLOOMINGTON    SUNNY     41  22  46 NW16G23   30.30R TC   5           
DECATUR        SUNNY     43  22  43 NW14G24   30.32R TC   6           
PEORIA         SUNNY     42  21  43 NW9G22    30.31S TC   6           
LACON*         MOSUNNY   39  23  51 NW10G18   30.30R WCI  32 TC   4   
SPRINGFIELD    SUNNY     43  23  45 NW10      30.33S TC   6           
TAYLORVILLE    SUNNY     43  25  49 MISG      30.34R TC   6           
$$


SKY/WX - Weather  TMP - Temperature  DP - Dew Point  RH - Humidity
WIND - Wind Direction/Speed PRES - Barometric Pressure VSB - Visibility
WCI - Wind Chill Index E13G22 Wind - East Wind 13 mph/Gusts of 22 mph

Trending Headlines

Trending Entertainment Headlines

Avoca Radar Loop

Use the map search tool if you want to place a location marker on the radar map...

Avoca Quick Facts

National Two Day Weather Forecast


E-mail the Avoca Weather Forecast

Voice your opinion or tell us about page issues...